Regional Weather Roundup
Issued by NWS Kansas City/Pleasant Hill, MO

Home | Current Version | Previous Version | Graphics & Text | Print | Product List | Glossary Off
Versions: 1 2 3 4 5 6 7 8 9 10 11 12 13 14 15 16 17 18 19 20 21 22 23 24 25 26 27 28 29 30 31 32 33 34 35 36 37 38 39 40 41 42 43 44 45 46 47 48 49 50

000
ASUS43 KEAX 300611
RWREAX

WEATHER ROUNDUP FOR EASTERN KANSAS AND NORTHWEST MISSOURI
NATIONAL WEATHER SERVICE KANSAS CITY/PLEASANT HILL MO
1200 AM CST FRI JAN 30 2015

KSZ040-057-103>105-MOZ028-029-037-043-300700-
...KANSAS CITY METROPOLITAN AREA...

CITY           SKY/WX    TMP DP  RH WIND       PRES   REMARKS
K.C. INTL      CLEAR     25  21  85 N9        30.52S WCI  15
6HR MIN TEMP:  25; 6HR MAX TEMP:  36;

K.C. DOWNTOWN  CLEAR     30  23  75 CALM      30.54R
6HR MIN TEMP:  30; 6HR MAX TEMP:  39;

LEES SUMMIT    CLEAR     29  22  75 N8        30.52R WCI  21
6HR MIN TEMP:  29; 6HR MAX TEMP:  38;

OLATHE - IXD   CLEAR     25  21  85 N7        30.53R WCI  17
6HR MIN TEMP:  22; 6HR MAX TEMP:  37;

OLATHE - OJC   CLEAR     30  23  75 N6        30.51R WCI  24
6HR MIN TEMP:  30; 6HR MAX TEMP:  39;

LAWRENCE       CLEAR     21  18  88 N3        30.54S

$$

MOZ001>008-011>017-020>025-030>033-038>040-044>046-053-054-300700-
...NORTHERN AND CENTRAL MISSOURI...

CITY           SKY/WX    TMP DP  RH WIND       PRES   REMARKS
ST. JOSEPH     CLEAR     20  17  88 NE7       30.54S WCI  11
6HR MIN TEMP:  17; 6HR MAX TEMP:  36;

MOSBY          CLEAR     25  23  93 CALM      30.53S
WARRENSBURG    CLEAR     28  23  80 NW6       30.52S WCI  22
WHITEMAN AFB   CLEAR     27  22  80 N5        30.51S WCI  22
6HR MIN TEMP:  27; 6HR MAX TEMP:  38;

CLINTON        CLEAR     30  27  86 N5        30.52S WCI  25
SEDALIA        CLEAR     30  23  75 N7        30.51F WCI  23
6HR MIN TEMP:  30; 6HR MAX TEMP:  39;

WARSAW         NOT AVBL
MARSHALL       CLEAR     32  25  74 N5        30.52S WCI  27
CHILLICOTHE      N/A     31  22  69 NW7       30.54R WCI  24
6HR MIN TEMP:  30; 6HR MAX TEMP:  37;

MOBERLY        CLEAR     30  21  69 NW10      30.51R WCI  21
KIRKSVILLE     PTCLDY    27  21  78 NW8       30.50R WCI  19
6HR MIN TEMP:  26; 6HR MAX TEMP:  35; 6HR PCP: TRACE;


$$

MOZ041-047>049-056>058-063>065-088>090-097-300700-
...EASTERN AND SOUTHERN MISSOURI...

CITY           SKY/WX    TMP DP  RH WIND       PRES   REMARKS
ST. LOUIS INTL CLOUDY    37  24  59 NW12      30.44R WCI  29
6HR MIN TEMP:  37; 6HR MAX TEMP:  39;

SPIRIT OF STL  CLOUDY    36  24  62 NW9G17    30.44R WCI  29
COLUMBIA       CLEAR     30  22  72 NW12      30.48R WCI  20
JEFFERSON CITY PTCLDY    34  22  61 NW10      30.51R WCI  26
MEXICO         MOCLDY    32  27  80 NW10      30.48R WCI  24
HANNIBAL       PTCLDY    28  19  69 NW10      30.49R WCI  19
ROLLA          CLOUDY    34  24  67 NW9       30.44R WCI  27
LEBANON        CLEAR     30  25  80 N6        30.47R WCI  24
OSAGE BEACH    CLOUDY    34  21  60 N10       30.49R WCI  26
SPRINGFIELD    CLEAR     27  22  81 N6        30.48R WCI  20
BRANSON        CLEAR     32  27  80 NW8       30.48S WCI  25
NEVADA         CLEAR     28  25  86 CALM      30.54S
JOPLIN         CLEAR     30  25  81 N3        30.53R
WEST PLAINS    MOCLDY    33  25  72 N8        30.45R WCI  26

$$

IAZ060-094-KSZ022-034>040-054-083-096-NEZ052-066-093-300700-
...KANSAS...SOUTHEAST NEBRASKA AND IOWA...

CITY           SKY/WX    TMP DP  RH WIND       PRES   REMARKS
TOPEKA         CLEAR     20  19  96 CALM      30.55R
6HR MIN TEMP:  20; 6HR MAX TEMP:  38;

MANHATTAN      CLEAR     20  18  92 CALM      30.55R
EMPORIA        CLEAR     27  23  85 NW3       30.54R
CHANUTE        CLEAR     25  22  88 CALM      30.53S
WICHITA        PTCLDY    31  22  69 CALM      30.53R
OMAHA          CLEAR     26  21  81 N6        30.55R WCI  19
LINCOLN        CLEAR     20  17  88 NW3       30.56R
FALLS CITY     CLEAR     21  17  84 W5        30.54S WCI  15
LAMONI         CLEAR     24  19  81 NW7       30.51R WCI  16
DES MOINES     PTCLDY    25  18  74 N10       30.53R WCI  15

$$




USA.gov is the U.S. government's official web portal to all federal, state and local government web resources and services.